Flag for Poland Weather past 2 weeks in Lublin, Poland

Now
38 °F

Overcast.


Feels Like: 32 °F
Forecast: 32 / 38 °F
Wind: 8 mph from West

Location: Lublin Radawiec

Current Time: Mar 3, 2015 at 1:20:50 PM

Latest Report: Mar 3, 2015 at 12:00 PM


Visibility: 22 mi

Pressure: 29.96 "Hg

Humidity: 72%

Dew point: 29 °F

Location of LublinLocation

Historic Weather in Lublin — Graph

°F

Lublin temperature yesterday

Maximum temperature yesterday: 48 °F (at 1:00 PM)
Minimum temperature yesterday: 38 °F (at 11:00 PM)
Average temperature yesterday: 42 °F

Past Weeks' High & Low Weather Summary

 TemperatureHumidityPressure
High50 °F (Feb 23, 3:00 PM)100% (Feb 25, 8:00 PM)30.77 "Hg (Feb 25, 8:00 PM)
Low18 °F (Feb 17, 7:00 AM)32% (Feb 17, 2:00 PM)29.53 "Hg (Mar 2, 3:00 PM)
Average37 °F78%30.06 "Hg
* Reported Feb 16 12:00 Noon — Mar 3 12:00 Noon, Lublin, Weather by CustomWeather, © 2015

Note: Actual official high and low records may vary slightly from our data, if they occured in-between our weather recording intervals... More about our weather records

Advertising

Lublin weather history for previous 24 hours

 ConditionsComfort  
Time TempWeatherWind HumidityBarometerVisibility
12:00 PM
Tue, Mar 3
38 °FOvercast.8 mph72%29.96 "Hg22 mi
11:00 AM38 °FOvercast.6 mph78%29.94 "Hg11 mi
10:00 AM38 °FPartly sunny.8 mph73%29.91 "Hg14 mi
9:00 AM36 °FPartly sunny.5 mph74%29.90 "Hg10 mi
8:00 AM35 °FPassing clouds.2 mph76%29.88 "Hg9 mi
7:00 AM33 °FPassing clouds.2 mph81%29.86 "Hg9 mi
6:00 AM33 °FClear.3 mph81%29.85 "Hg11 mi
5:00 AM33 °FClear.2 mph83%29.84 "Hg11 mi
4:00 AM33 °FPassing clouds.3 mph81%29.82 "Hg12 mi
3:00 AM33 °FClear.3 mph81%29.80 "Hg12 mi
2:00 AM33 °FPassing clouds.2 mph83%29.79 "Hg11 mi
1:00 AM35 °FPassing clouds.5 mph79%29.78 "Hg12 mi
12:00 AM36 °FPassing clouds.5 mph82%29.76 "Hg11 mi
11:00 PM
Mon, Mar 2
38 °FPassing clouds.5 mph79%29.74 "Hg11 mi
9:00 PM39 °FPassing clouds.5 mph84%29.70 "Hg11 mi
8:00 PM39 °FOvercast.3 mph90%29.67 "Hg9 mi
7:00 PM40 °FOvercast.2 mph90%29.64 "Hg19 mi
6:00 PM40 °FOvercast.5 mph89%29.62 "Hg22 mi
5:00 PM39 °FRain showers. Low clouds.6 mph86%29.62 "Hg2 mi
4:00 PM43 °FOvercast.3 mph89%29.55 "Hg10 mi
3:00 PM44 °FSprinkles. Overcast.6 mph89%29.53 "Hg6 mi
2:00 PM44 °FSprinkles. Overcast.3 mph84%29.55 "Hg5 mi
1:00 PM48 °FOvercast.6 mph67%29.56 "Hg9 mi
Weather by CustomWeather, © 2015

See weather overviewHow to use our weather pages